| time (UTC) | temp F | wind direction | speed MPH | gust MPH | rain 1hr in | rain 24hr in | rain mn in | humidity % | barometer mb |
| 20260507180055 | 58 | 94 | 0.0 | 5.0 | 0.00 | 0.00 | 0.00 | 71 | 1007.8 |
| 20260507174600 | 58 | 88 | 2.0 | 7.0 | 0.00 | 0.00 | 0.00 | 71 | 1007.7 |
| 20260507173132 | 57 | 124 | 1.0 | 5.0 | 0.00 | 0.00 | 0.00 | 71 | 1007.8 |
| 20260507171604 | 56 | 46 | 1.0 | 7.0 | 0.00 | 0.00 | 0.00 | 73 | 1007.8 |
| 20260507170110 | 55 | 37 | 3.0 | 7.0 | 0.00 | 0.00 | 0.00 | 80 | 1007.9 |
| 20260507164556 | 53 | 73 | 1.0 | 4.0 | 0.00 | 0.00 | 0.00 | 91 | 1007.9 |
| 20260507163050 | 51 | 12 | 0.0 | 4.0 | 0.00 | 0.00 | 0.00 | 93 | 1008.1 |
| 20260507161602 | 51 | 13 | 3.0 | 8.0 | 0.00 | 0.00 | 0.00 | 94 | 1007.7 |
| 20260507160050 | 51 | 51 | 1.0 | 5.0 | 0.00 | 0.00 | 0.00 | 93 | 1007.8 |
| 20260507154649 | 51 | 111 | 0.0 | 2.0 | 0.00 | 0.00 | 0.00 | 94 | 1007.7 |
| 20260507153055 | 51 | 115 | 0.0 | 1.0 | 0.00 | 0.00 | 0.00 | 94 | 1007.9 |
| 20260507151548 | 51 | 235 | 0.0 | 5.0 | 0.00 | 0.00 | 0.00 | 93 | 1008.2 |
| 20260507150052 | 51 | 108 | 0.0 | 3.0 | 0.00 | 0.00 | 0.00 | 93 | 1008.3 |
| 20260507144551 | 51 | 13 | 0.0 | 0.0 | 0.00 | 0.00 | 0.00 | 93 | 1008.4 |
| 20260507143047 | 50 | 74 | 1.0 | 5.0 | 0.00 | 0.00 | 0.00 | 93 | 1008.0 |
| 20260507141557 | 50 | 155 | 2.0 | 6.0 | 0.00 | 0.00 | 0.00 | 92 | 1008.0 |
| 20260507140043 | 50 | 108 | 2.0 | 6.0 | 0.00 | 0.00 | 0.00 | 91 | 1008.0 |
| 20260507134541 | 51 | 231 | 1.0 | 7.0 | 0.00 | 0.00 | 0.00 | 89 | 1008.1 |
| 20260507133036 | 52 | 134 | 5.0 | 11.0 | 0.00 | 0.00 | 0.00 | 84 | 1008.1 |
| 20260507131537 | 56 | 131 | 2.0 | 13.0 | 0.00 | 0.00 | 0.00 | 72 | 1007.9 |
| 20260507130033 | 59 | 172 | 3.0 | 10.0 | 0.00 | 0.00 | 0.00 | 63 | 1007.5 |
| 20260507124532 | 62 | 162 | 2.0 | 8.0 | 0.00 | 0.00 | 0.00 | 62 | 1007.2 |
| 20260507123037 | 61 | 127 | 2.0 | 5.0 | 0.00 | 0.00 | 0.00 | 63 | 1007.3 |
| 20260507121529 | 61 | 66 | 1.0 | 5.0 | 0.00 | 0.00 | 0.00 | 64 | 1007.2 |
| 20260507120040 | 61 | 319 | 2.0 | 4.0 | 0.00 | 0.00 | 0.00 | 63 | 1007.2 |
| 20260507114527 | 61 | 11 | 2.0 | 8.0 | 0.00 | 0.00 | 0.00 | 64 | 1007.4 |
| 20260507113037 | 61 | 56 | 1.0 | 6.0 | 0.00 | 0.00 | 0.00 | 65 | 1007.8 |
| 20260507111521 | 61 | 261 | 0.0 | 3.0 | 0.00 | 0.00 | 0.00 | 63 | 1008.1 |
| 20260507110020 | 61 | 96 | 0.0 | 2.0 | 0.00 | 0.00 | 0.00 | 65 | 1008.1 |
| 20260507104517 | 60 | 158 | 2.0 | 8.0 | 0.00 | 0.00 | 0.00 | 66 | 1008.3 |
| 20260507103012 | 59 | 108 | 1.0 | 7.0 | 0.00 | 0.00 | 0.00 | 68 | 1008.6 |
| 20260507101512 | 58 | 48 | 2.0 | 6.0 | 0.00 | 0.00 | 0.00 | 67 | 1008.9 |
| 20260507100015 | 58 | 52 | 1.0 | 7.0 | 0.00 | 0.00 | 0.00 | 69 | 1009.0 |
| 20260507094509 | 57 | 108 | 3.0 | 8.0 | 0.00 | 0.00 | 0.00 | 69 | 1009.0 |
| 20260507093009 | 56 | 145 | 1.0 | 7.0 | 0.00 | 0.00 | 0.00 | 69 | 1009.0 |
| 20260507091501 | 57 | 96 | 1.0 | 8.0 | 0.00 | 0.00 | 0.00 | 71 | 1009.0 |
| 20260507090058 | 56 | 75 | 3.0 | 7.0 | 0.00 | 0.00 | 0.00 | 72 | 1009.0 |
| 20260507084602 | 56 | 59 | 2.0 | 9.0 | 0.00 | 0.00 | 0.00 | 72 | 1008.8 |
| 20260507083052 | 55 | 58 | 2.0 | 7.0 | 0.00 | 0.00 | 0.00 | 73 | 1008.8 |
| 20260507081551 | 55 | 63 | 1.0 | 7.0 | 0.00 | 0.00 | 0.00 | 74 | 1008.8 |
| 20260507080049 | 54 | 70 | 2.0 | 6.0 | 0.00 | 0.00 | 0.00 | 74 | 1008.9 |
| 20260507074551 | 54 | 37 | 1.0 | 5.0 | 0.00 | 0.00 | 0.00 | 75 | 1008.9 |
| 20260507073107 | 54 | 97 | 2.0 | 5.0 | 0.00 | 0.00 | 0.00 | 75 | 1008.8 |
| 20260507071543 | 53 | 98 | 2.0 | 5.0 | 0.00 | 0.00 | 0.00 | 75 | 1008.9 |
| 20260507070043 | 53 | 97 | 1.0 | 4.0 | 0.00 | 0.00 | 0.00 | 75 | 1009.0 |
| 20260507064546 | 53 | 9 | 1.0 | 4.0 | 0.00 | 0.00 | 0.00 | 75 | 1008.9 |
| 20260507063047 | 53 | 96 | 0.0 | 4.0 | 0.00 | 0.00 | 0.00 | 75 | 1008.9 |
| 20260507061541 | 53 | 100 | 0.0 | 5.0 | 0.00 | 0.00 | 0.00 | 74 | 1008.7 |
| 20260507060037 | 53 | 110 | 0.0 | 5.0 | 0.00 | 0.00 | 0.00 | 74 | 1008.6 |
| 20260507054537 | 53 | 91 | 2.0 | 7.0 | 0.00 | 0.00 | 0.00 | 73 | 1008.4 |
| 20260507053037 | 53 | 82 | 2.0 | 5.0 | 0.00 | 0.00 | 0.00 | 73 | 1008.3 |
| 20260507051533 | 53 | 87 | 2.0 | 8.0 | 0.00 | 0.00 | 0.00 | 73 | 1008.4 |
| 20260507050035 | 53 | 113 | 1.0 | 7.0 | 0.00 | 0.00 | 0.00 | 73 | 1008.2 |
| 20260507044533 | 53 | 84 | 2.0 | 8.0 | 0.00 | 0.00 | 0.00 | 72 | 1008.4 |
| 20260507043032 | 53 | 55 | 1.0 | 6.0 | 0.00 | 0.00 | 0.00 | 72 | 1008.3 |
| 20260507041631 | 53 | 110 | 1.0 | 8.0 | 0.00 | 0.00 | 0.00 | 72 | 1008.3 |
| 20260507040028 | 53 | 209 | 2.0 | 8.0 | 0.00 | 0.00 | 0.00 | 72 | 1008.3 |
| 20260507034534 | 53 | 103 | 1.0 | 6.0 | 0.00 | 0.00 | 0.00 | 73 | 1008.4 |
| 20260507033026 | 52 | 65 | 0.0 | 4.0 | 0.00 | 0.00 | 0.00 | 73 | 1008.5 |
| 20260507031525 | 52 | 22 | 1.0 | 5.0 | 0.00 | 0.00 | 0.00 | 72 | 1008.5 |
| 20260507030024 | 53 | 55 | 3.0 | 6.0 | 0.00 | 0.00 | 0.00 | 72 | 1008.6 |
| 20260507024523 | 52 | 83 | 3.0 | 7.0 | 0.00 | 0.00 | 0.00 | 72 | 1008.6 |
| 20260507023021 | 52 | 49 | 1.0 | 6.0 | 0.00 | 0.00 | 0.00 | 72 | 1008.6 |
| 20260507021520 | 52 | 72 | 3.0 | 7.0 | 0.00 | 0.00 | 0.00 | 71 | 1008.6 |
| 20260507020020 | 52 | 122 | 1.0 | 9.0 | 0.00 | 0.00 | 0.00 | 71 | 1008.5 |
| 20260507014523 | 52 | 78 | 1.0 | 6.0 | 0.00 | 0.00 | 0.00 | 71 | 1008.5 |
| 20260507013016 | 52 | 99 | 0.0 | 7.0 | 0.00 | 0.00 | 0.00 | 69 | 1008.5 |
| 20260507011616 | 53 | 111 | 3.0 | 10.0 | 0.00 | 0.00 | 0.00 | 68 | 1008.6 |
| 20260507010026 | 53 | 63 | 3.0 | 9.0 | 0.00 | 0.00 | 0.00 | 68 | 1008.7 |
| 20260507004510 | 53 | 93 | 3.0 | 9.0 | 0.00 | 0.00 | 0.00 | 67 | 1008.8 |
| 20260507003010 | 53 | 113 | 0.0 | 6.0 | 0.00 | 0.00 | 0.00 | 66 | 1008.9 |
| 20260507001508 | 54 | 84 | 2.0 | 6.0 | 0.00 | 0.00 | 0.00 | 65 | 1008.7 |
| 20260507000007 | 54 | 74 | 1.0 | 5.0 | 0.00 | 0.00 | 0.00 | 65 | 1008.7 |
| 20260506234508 | 53 | 42 | 2.0 | 6.0 | 0.00 | 0.00 | 0.00 | 64 | 1008.7 |
| 20260506233003 | 53 | 68 | 0.0 | 2.0 | 0.00 | 0.00 | 0.00 | 63 | 1008.6 |
| 20260506231502 | 53 | 46 | 0.0 | 1.0 | 0.00 | 0.00 | 0.00 | 62 | 1008.6 |
| 20260506230001 | 53 | 82 | 0.0 | 1.0 | 0.00 | 0.00 | 0.00 | 61 | 1008.6 |
| 20260506224618 | 53 | 71 | 0.0 | 2.0 | 0.00 | 0.00 | 0.00 | 59 | 1008.5 |
| 20260506223059 | 54 | 75 | 0.0 | 1.0 | 0.00 | 0.00 | 0.00 | 57 | 1008.4 |
| 20260506221556 | 54 | 69 | 0.0 | 0.0 | 0.00 | 0.00 | 0.00 | 54 | 1008.4 |
| 20260506220104 | 54 | 68 | 0.0 | 0.0 | 0.00 | 0.00 | 0.00 | 56 | 1008.4 |
| 20260506214552 | 55 | 68 | 0.0 | 0.0 | 0.00 | 0.00 | 0.00 | 53 | 1008.5 |
| 20260506213051 | 55 | 68 | 0.0 | 0.0 | 0.00 | 0.00 | 0.00 | 54 | 1008.4 |
| 20260506211555 | 55 | 69 | 0.0 | 1.0 | 0.00 | 0.00 | 0.00 | 54 | 1008.4 |
| 20260506210050 | 55 | 69 | 0.0 | 0.0 | 0.00 | 0.00 | 0.00 | 55 | 1008.3 |
| 20260506204550 | 56 | 69 | 0.0 | 1.0 | 0.00 | 0.00 | 0.00 | 54 | 1008.3 |
| 20260506203056 | 57 | 69 | 0.0 | 1.0 | 0.00 | 0.00 | 0.00 | 52 | 1008.2 |
| 20260506201549 | 57 | 122 | 0.0 | 0.0 | 0.00 | 0.00 | 0.00 | 51 | 1008.0 |
| 20260506200048 | 59 | 122 | 0.0 | 1.0 | 0.00 | 0.00 | 0.00 | 50 | 1008.0 |
| 20260506194552 | 60 | 122 | 0.0 | 0.0 | 0.00 | 0.00 | 0.00 | 45 | 1007.8 |
| 20260506193051 | 61 | 122 | 0.0 | 0.0 | 0.00 | 0.00 | 0.00 | 43 | 1007.7 |
| 20260506191547 | 62 | 125 | 0.0 | 2.0 | 0.00 | 0.00 | 0.00 | 41 | 1007.8 |
| 20260506190046 | 63 | 127 | 0.0 | 2.0 | 0.00 | 0.00 | 0.00 | 41 | 1007.7 |
| 20260506184546 | 65 | 143 | 0.0 | 3.0 | 0.00 | 0.00 | 0.00 | 38 | 1007.6 |
| 20260506183046 | 67 | 130 | 1.0 | 2.0 | 0.00 | 0.00 | 0.00 | 36 | 1007.6 |
| 20260506181559 | 68 | 134 | 0.0 | 3.0 | 0.00 | 0.00 | 0.00 | 35 | 1007.6 |